Regional Weather Roundup
Issued by NWS

Home | Current Version | Previous Version | Graphics & Text | Print | Product List | Glossary On
Versions: 1 2 3 4 5 6 7 8 9 10 11 12 13 14 15 16 17 18 19 20 21 22 23 24 25 26 27 28 29 30 31 32 33 34 35 36 37 38 39 40 41 42 43 44 45 46 47 48 49 50
000
ASUS43 KMKX 281500
RWRWI

WISCONSIN REGIONAL WEATHER ROUNDUP
NATIONAL WEATHER SERVICE MILWAUKEE/SULLIVAN WI
900 AM CST FRI NOV 28 2014

NOTE: "FAIR" INDICATES FEW OR NO CLOUDS BELOW 12,000 FEET WITH NO
SIGNIFICANT WEATHER AND/OR OBSTRUCTIONS TO VISIBILITY.

WIZ001-002-006>008-014>016-023>028-281600-
NORTHWEST WISCONSIN

CITY           SKY/WX    TMP DP  RH WIND       PRES   REMARKS
SUPERIOR ARPT  LGT SNOW  10   8  88 CALM      30.08F
ASHLAND        LGT SNOW   9   6  88 E3        30.09F VSB 3/4
HAYWARD        CLOUDY    10   5  80 SE6       30.02F WCI   0
SIREN          FLURRIES  12   7  81 SE6       30.03F WCI   2
CUMBERLAND     LGT SNOW  10   7  85 SE10      30.01F WCI  -3
RICE LAKE      CLOUDY    12   7  83 SE8       30.05S WCI   0
CHETEK         CLOUDY    11   7  83 E7        30.04S WCI   1
LADYSMITH      CLOUDY    11   7  84 E9        30.06F WCI  -1
EAU CLAIRE     NOT AVBL
MENOMONIE      CLOUDY    14   9  81 E8        30.05F WCI   3
NEW RICHMOND   CLOUDY    13   8  81 E7        30.01F WCI   2
OSCEOLA        CLOUDY    13   9  82 E12       30.04F WCI  -1
$$

WIZ003>005-009-010-017-018-281600-
NORTH CENTRAL WISCONSIN

CITY           SKY/WX    TMP DP  RH WIND       PRES   REMARKS
MANITOWISH WTR LGT SNOW   6   2  85 S7        30.04F WCI  -6
ARBOR VITAE    LGT SNOW   9   5  83 SE7       30.05F WCI  -2
WOODRUFF       LGT SNOW   9   5  83 SE7       30.05F WCI  -2
RHINELANDER    LGT SNOW   7   3  84 SE5       30.06F VSB 3/4 WCI  -2
EAGLE RIVER    LGT SNOW   7   2  78 CALM      30.06F
LAND O LAKES   LGT SNOW   8   4  85 S5        30.07S WCI  -1
PHILLIPS       FLURRIES   8   5  86 SE6       30.04F WCI  -2
TOMAHAWK       LGT SNOW   8   4  86 CALM      30.07F
MEDFORD        FLURRIES   9   5  83 SE7       30.04F WCI  -2
MERRILL        CLOUDY     9   5  85 SE6       30.09F WCI  -1
$$

WIZ029-030-035-036-043>047-281600-
CENTRAL WISCONSIN

CITY           SKY/WX    TMP DP  RH WIND       PRES   REMARKS
WAUSAU         CLOUDY    10   5  80 SE8       30.09F WCI  -2
MOSINEE        NOT AVBL
MARSHFIELD     CLOUDY    12   7  80 SE10      30.07F WCI  -1
STEVENS POINT  CLOUDY     8   5  87 SE5       30.13S WCI   0
WAUPACA        CLOUDY    15  10  81 E7        30.17F WCI   5
WAUTOMA        NOT AVBL
WISC RAPIDS    CLOUDY    12   7  80 SE9       30.12F WCI   0
CAMP DOUGLAS   NOT AVBL
$$

WIZ011>013-019>022-031-037>040-048>050-281600-
NORTHEAST WISCONSIN

CITY           SKY/WX    TMP DP  RH WIND       PRES   REMARKS
ANTIGO         LGT SNOW   6   3  87 S7        30.10S WCI  -5
SHAWANO        LGT SNOW  13   8  83 CALM      30.19S
OCONTO         CLOUDY    12   6  77 SW5       30.21F WCI   4
STURGEON BAY   CLOUDY    14   3  62 S8        30.20S WCI   3
GREEN BAY      LGT SNOW  14  10  84 S7        30.20F FOG     WCI   4
MANITOWOC      LGT SNOW  16  12  86 S8        30.22F FOG     WCI   5
APPLETON       LGT SNOW  16  10  79 SE9       30.17F WCI   4
CLINTONVILLE   LGT SNOW  12   9  85 SE3       30.18S VSB 1
OSHKOSH        LGT SNOW  16  11  80 MISG      30.18S
$$

WIZ032>034-041-042-053>061-281600-
SOUTHWEST WISCONSIN

CITY           SKY/WX    TMP DP  RH WIND       PRES   REMARKS
LA CROSSE      MOSUNNY   19  10  68 SE9       30.07F WCI   8
SPARTA         CLOUDY    17  11  78 SE8       30.09S WCI   6
VIROQUA        CLOUDY    15  10  81 SE14      30.03F WCI   1
BOSCOBEL       MOSUNNY   20   9  62 VRB6      30.10F WCI  12
PRAIRIE DU CHI MOSUNNY   19   8  63 SE8       30.08F WCI   8
PLATTEVILLE    PTSUNNY   17  10  73 SE13G20   30.09F WCI   4
$$

WIZ056-057-062-063-064-067-068-281600-
SOUTH CENTRAL WISCONSIN

CITY           SKY/WX    TMP DP  RH WIND       PRES   REMARKS
REEDSBURG      CLOUDY    16  10  78 SE8       30.11S WCI   5
BARABOO/DELLS  CLOUDY    16  10  78 SE8       30.11S WCI   5
LONE ROCK      NOT AVBL
MINERAL POINT  PTSUNNY   19  12  73 SE15G21   30.08F WCI   5
MADISON        CLOUDY    18  11  74 S15       30.14F WCI   4
MIDDLETON      CLOUDY    19  11  70 S12       30.13F WCI   7
WATERTOWN      CLOUDY    17  14  89 SE8       30.16F WCI   6
MONROE         PTSUNNY   18  14  86 SE15      30.13S WCI   3
JANESVILLE     CLOUDY    19  12  73 SE12G17   30.17F WCI   7
$$

WIZ051-052-058>065-066-070>072-281600-
SOUTHEAST WISCONSIN

CITY           SKY/WX    TMP DP  RH WIND       PRES   REMARKS
MILWAUKEE      LGT SNOW  19  14  81 S9        30.21F WCI   8
WAUKESHA       LGT SNOW  16  12  86 SE8       30.19F WCI   5
MILWAUKEE/TIMM LGT SNOW  18  12  79 SE9       30.21F WCI   6
RACINE         LGT SNOW  20  14  77 S10       30.23F WCI   9
BURLINGTON     PTSUNNY   17  13  84 S9G16     30.20F WCI   6
KENOSHA        CLOUDY    20  16  84 S9        30.21F WCI   9
FOND DU LAC    FLURRIES  17  11  77 S10       30.18F WCI   5
SHEBOYGAN      LGT SNOW  16  12  84 S5        30.20F FOG     WCI   9
WEST BEND      FLURRIES  18  12  79 SE6       30.18F WCI   9
JUNEAU         CLOUDY    16  12  86 SE8       30.17S WCI   5
$$

LSZ147-162-281600-
LAKE SUPERIOR

STATION/POSITION TIME  TEMP    WIND        PRES    WAVE
                       AIR SEA DIR/SP/G            HT/PER
                 (UTC) (F)     (DEG/KT/KT) (MB)    (FT/S)
DEVILS ISLAND    1400   14     160/  3/  4 1021.3F
PORT WING        1400   11     120/  3/  5 1019.3F
SAXON HARBOR     1400   11        CALM     1020.0S
$$

LMZ867-665-643>646-281600-
LAKE MICHIGAN

STATION/POSITION TIME  TEMP    WIND        PRES    WAVE
                       AIR SEA DIR/SP/G            HT/PER
                 (UTC) (F)     (DEG/KT/KT) (MB)    (FT/S)
CHAMBERS ISLAND  1400   17     200/  5/  8 1023.0F
N MID LAKE BUOY  1350   22 42  240/ 10/ 14 1024.3F   1/ 3
NORTHPORT PIER   1417   17      CALM  /  7 1023.0F
SISTER BAY       1413          220/  8/ 10   N/A
KEWAUNEE LAKESHO 1400   14     240/  5/ 10 1022.9F
SHEBOYGAN LAKESH 1400   16 34  230/ 12/ 13 1025.1F
PORT WASHINGTON  1440   19     210/  6/ 10 1024.0F
MILWAUKEE LAKESH 1400   19     190/ 10/ 12   N/A
S MID LAKE BUOY  1350   26 42  210/ 12/ 19 1025.9F   2/ 6
KENOSHA   LAKESH 1400   19     180/  9/ 11 1024.0F
$$

TC  - TEMPERATURE IN CELSIUS
VSB - VISIBILITY IN STATUTE MILES
WCI - WIND CHILL INDEX
HX  - HEAT INDEX




USA.gov is the U.S. government's official web portal to all federal, state and local government web resources and services.